ARCTURUS

Last updated on Sun Dec 07 2025 00:02:51 GMT+0000 (Coordinated Universal Time)

1 56371U 23060B 25340.42233635 -.00000163 00000+0 00000+0 0 9994 2 56371 2.2781 82.3914 0001021 254.1660 228.8394 1.00271196 9528
UTC large
Height (km)
Speed (km/s)
/
Latitude / Longitude
Inclination (degrees)
Orbital Period (minutes)
Azimuth
Elevation
Range (km)
Doppler Factor

Next 0 passes for location: London (51.5072 / 0.1276)

Sorry there are no passes over London.